sat.trackr.live / text

‹ back to catalog

ONEWEB-0118

NORAD 47264 · 2020-100G

PAYLOAD ACTIVE UNKNOWN

§ Identity

Operator
Country
UK
Launch date
2020-12-18
Launch site
VOSTO
Launch vehicle
Mass (kg)
RCS (m²)

Purposes: comms

External: N2YO · Heavens-Above · Gunter

§ Orbital elements

Epoch: 2026-09-12T03:59:29.145984Z

Period
109.72 min
Inclination
87.9001°
Eccentricity
0.0001773
Mean motion
13.12441191 rev/d
Perigee alt
1,212.4 km
Apogee alt
1,215.1 km
Semi-major
7,591.9 km
B*
-9.6424e-4
RAAN
333.3861°
Arg perigee
110.3816°
Mean anomaly
249.7503°
Rev number
27,613

§ Raw data

ONEWEB-01181 47264U 20100G   26255.16630956 -.00000334  00000+0 -96424-3 0  99912 47264  87.9001 333.3861 0001773 110.3816 249.7503 13.12441191276131

JSON: /api/v1/satellites/47264 · /tle

For live sub-satellite position, see the globe view (requires WebGL).

§ Visibility from observer

Set your observer location to see the next 7 days of passes ≥ 10°. The values pass through the URL so the page stays shareable.

No JS? Fill the form by hand. The geolocation button needs JavaScript.